TimeMST,TemperatureF,Dew PointF,Humidity,Sea Level PressureIn,VisibilityMPH,Wind Direction,Wind SpeedMPH,Gust SpeedMPH,PrecipitationIn,Events,Conditions,WindDirDegrees,DateUTC
1:50 AM,63,59,82,29.98,2,South,8.9,,,,,180,2013-04-06 08:50:00
4:50 AM,63,52,58,29.95,2,South,6.7,,,,,180,2013-04-06 11:50:00
5:58 AM,57.2,53.6,88,29.97,10.0,South,11.5,-,N/A,,Clear,180,2013-04-06 12:58:00
6:50 AM,57.2,55.4,94,29.97,10.0,South,10.4,-,N/A,,Clear,190,2013-04-06 13:50:00
7:46 AM,62.6,57.2,82,30.04,10.0,South,13.8,-,N/A,,Partly Cloudy,180,2013-04-06 14:46:00
7:50 AM,65,51,49,29.97,12,South,6.7,,,,Clear,180,2013-04-06 14:50:00
8:40 AM,68.0,57.2,68,29.99,10.0,South,10.4,-,N/A,,Partly Cloudy,190,2013-04-06 15:40:00
9:41 AM,73.4,53.6,50,29.98,10.0,South,9.2,-,N/A,,Partly Cloudy,180,2013-04-06 16:41:00
10:47 AM,82.4,50.0,32,30.02,10.0,SW,6.9,-,N/A,,Clear,230,2013-04-06 17:47:00
10:50 AM,85,59,31,29.98,19,South,4.5,,,,Clear,180,2013-04-06 17:50:00
11:43 AM,87.8,39.2,18,29.95,10.0,Calm,Calm,-,N/A,,Clear,0,2013-04-06 18:43:00
12:44 PM,91.4,35.6,14,29.92,12.0,NNW,11.5,-,N/A,,Clear,340,2013-04-06 19:44:00
1:44 PM,91.4,32.0,12,29.95,12.0,NNW,9.2,-,N/A,,Clear,340,2013-04-06 20:44:00
1:50 PM,94,46,11,29.91,19,NW,6.7,,,,,320,2013-04-06 20:50:00
2:48 PM,91.4,32.0,12,29.88,10.0,NNE,9.2,-,N/A,,Scattered Clouds,20,2013-04-06 21:48:00
3:51 PM,91.4,33.8,13,29.86,10.0,North,9.2,-,N/A,,Scattered Clouds,360,2013-04-06 22:51:00
4:50 PM,95,48,12,29.85,19,NNW,6.7,,,,Clear,330,2013-04-06 23:50:00
4:50 PM,89.6,33.8,14,29.98,10.0,NNW,9.2,-,N/A,,Scattered Clouds,330,2013-04-06 23:50:00
5:54 PM,82.4,48.2,30,29.88,10.0,South,11.5,-,N/A,,Scattered Clouds,190,2013-04-07 00:54:00
6:51 PM,77.0,51.8,41,29.90,10.0,SSW,11.5,-,N/A,,Scattered Clouds,210,2013-04-07 01:51:00
7:41 PM,73.4,53.6,50,30.02,10.0,South,13.8,-,N/A,,Scattered Clouds,190,2013-04-07 02:41:00
7:50 PM,75,56,41,29.89,2,South,11.2,,,,,180,2013-04-07 02:50:00
8:48 PM,68.0,55.4,64,29.93,10.0,SSW,11.5,-,N/A,,Scattered Clouds,200,2013-04-07 03:48:00
9:44 PM,66.2,57.2,73,29.94,10.0,South,13.8,-,N/A,,Scattered Clouds,180,2013-04-07 04:44:00
10:43 PM,64.4,57.2,77,30.06,10.0,South,13.8,-,N/A,,Scattered Clouds,170,2013-04-07 05:43:00
10:45 PM,67,58,65,29.92,2,South,11.2,,,,,180,2013-04-07 05:45:00